TimeCST,TemperatureF,Dew PointF,Humidity,Sea Level PressureIn,VisibilityMPH,Wind Direction,Wind SpeedMPH,Gust SpeedMPH,PrecipitationIn,Events,Conditions,WindDirDegrees,DateUTC
12:12 AM,44.6,39.2,81,29.72,10.0,West,17.3,-,N/A,,Mostly Cloudy,260,2013-11-09 06:12:00
12:33 AM,44.6,39.2,81,29.73,10.0,West,16.1,-,N/A,,Clear,260,2013-11-09 06:33:00
12:52 AM,42.8,39.2,87,29.74,10.0,West,13.8,18.4,N/A,,Clear,260,2013-11-09 06:52:00
1:12 AM,42.8,39.2,87,29.75,10.0,WSW,17.3,-,N/A,,Clear,250,2013-11-09 07:12:00
1:33 AM,42.8,37.4,81,29.76,10.0,WSW,17.3,-,N/A,,Clear,250,2013-11-09 07:33:00
1:52 AM,42.8,37.4,81,29.77,10.0,WSW,15.0,-,N/A,,Clear,250,2013-11-09 07:52:00
2:12 AM,41.0,37.4,87,29.76,10.0,WSW,11.5,-,N/A,,Clear,250,2013-11-09 08:12:00
2:32 AM,41.0,37.4,87,29.77,10.0,WSW,15.0,-,N/A,,Clear,250,2013-11-09 08:32:00
2:52 AM,39.2,35.6,87,29.77,10.0,WSW,15.0,-,N/A,,Clear,250,2013-11-09 08:52:00
3:13 AM,39.2,35.6,87,29.77,10.0,WSW,15.0,-,N/A,,Clear,250,2013-11-09 09:13:00
3:32 AM,39.2,35.6,87,29.78,10.0,West,12.7,-,N/A,,Clear,260,2013-11-09 09:32:00
3:52 AM,39.2,35.6,87,29.78,10.0,WSW,13.8,-,N/A,,Clear,250,2013-11-09 09:52:00
4:13 AM,39.2,35.6,87,29.78,10.0,West,15.0,-,N/A,,Clear,260,2013-11-09 10:13:00
4:32 AM,39.2,35.6,87,29.80,10.0,West,17.3,-,N/A,,Mostly Cloudy,260,2013-11-09 10:32:00
4:52 AM,41.0,35.6,81,29.81,10.0,West,17.3,-,N/A,,Overcast,270,2013-11-09 10:52:00
5:13 AM,41.0,35.6,81,29.82,10.0,West,15.0,-,N/A,,Overcast,260,2013-11-09 11:13:00
5:32 AM,42.8,37.4,81,29.83,10.0,West,15.0,20.7,N/A,,Overcast,270,2013-11-09 11:32:00
5:52 AM,42.8,37.4,81,29.84,10.0,West,17.3,-,N/A,,Overcast,270,2013-11-09 11:52:00
6:13 AM,42.8,37.4,81,29.85,10.0,West,17.3,-,N/A,,Mostly Cloudy,270,2013-11-09 12:13:00
6:32 AM,42.8,37.4,81,29.86,10.0,West,16.1,-,N/A,,Mostly Cloudy,270,2013-11-09 12:32:00
6:52 AM,41.0,37.4,87,29.88,10.0,West,16.1,-,N/A,,Mostly Cloudy,260,2013-11-09 12:52:00
7:13 AM,41.0,37.4,87,29.89,10.0,West,16.1,-,N/A,,Overcast,270,2013-11-09 13:13:00
7:32 AM,42.8,37.4,81,29.90,10.0,West,19.6,24.2,N/A,,Overcast,280,2013-11-09 13:32:00
7:52 AM,42.8,35.6,76,29.91,10.0,West,18.4,-,N/A,,Mostly Cloudy,280,2013-11-09 13:52:00
8:12 AM,42.8,35.6,76,29.93,10.0,West,17.3,-,N/A,,Scattered Clouds,280,2013-11-09 14:12:00
8:32 AM,42.8,35.6,76,29.95,10.0,West,18.4,25.3,N/A,,Mostly Cloudy,280,2013-11-09 14:32:00
8:53 AM,42.8,35.6,76,29.96,10.0,West,25.3,29.9,N/A,,Overcast,280,2013-11-09 14:53:00
9:12 AM,42.8,35.6,76,29.97,10.0,WNW,23.0,35.7,N/A,,Overcast,290,2013-11-09 15:12:00
9:32 AM,42.8,35.6,76,29.97,10.0,WNW,18.4,29.9,N/A,,Overcast,300,2013-11-09 15:32:00
9:53 AM,44.6,35.6,71,29.98,10.0,WNW,23.0,29.9,N/A,,Overcast,290,2013-11-09 15:53:00
10:12 AM,44.6,35.6,71,30.00,10.0,WNW,28.8,36.8,N/A,,Overcast,290,2013-11-09 16:12:00
10:32 AM,44.6,35.6,71,30.00,10.0,WNW,24.2,27.6,N/A,,Mostly Cloudy,290,2013-11-09 16:32:00
10:53 AM,44.6,35.6,71,30.01,10.0,WNW,19.6,27.6,N/A,,Mostly Cloudy,290,2013-11-09 16:53:00
11:12 AM,44.6,35.6,71,30.02,10.0,WNW,19.6,27.6,N/A,,Mostly Cloudy,300,2013-11-09 17:12:00
11:33 AM,44.6,35.6,71,30.01,10.0,WNW,24.2,28.8,N/A,,Mostly Cloudy,290,2013-11-09 17:33:00
11:52 AM,44.6,35.6,71,30.02,10.0,West,24.2,29.9,N/A,,Mostly Cloudy,280,2013-11-09 17:52:00
12:12 PM,44.6,35.6,71,30.02,10.0,West,23.0,31.1,N/A,,Mostly Cloudy,280,2013-11-09 18:12:00
12:33 PM,44.6,35.6,71,30.03,10.0,WNW,20.7,26.5,N/A,,Mostly Cloudy,290,2013-11-09 18:33:00
12:52 PM,44.6,33.8,66,30.03,10.0,WNW,23.0,31.1,N/A,,Mostly Cloudy,290,2013-11-09 18:52:00
1:12 PM,46.4,33.8,62,30.03,10.0,West,25.3,33.4,N/A,,Mostly Cloudy,280,2013-11-09 19:12:00
1:33 PM,46.4,33.8,62,30.04,10.0,West,25.3,28.8,N/A,,Mostly Cloudy,270,2013-11-09 19:33:00
1:52 PM,46.4,33.8,62,30.04,10.0,West,20.7,31.1,N/A,,Scattered Clouds,270,2013-11-09 19:52:00
2:12 PM,44.6,33.8,66,30.04,10.0,West,19.6,26.5,N/A,,Scattered Clouds,270,2013-11-09 20:12:00
2:33 PM,44.6,32.0,61,30.05,10.0,WNW,19.6,31.1,N/A,,Scattered Clouds,290,2013-11-09 20:33:00
2:52 PM,46.4,30.2,53,30.06,10.0,WNW,24.2,33.4,N/A,,Mostly Cloudy,290,2013-11-09 20:52:00
3:12 PM,46.4,32.0,57,30.07,10.0,WNW,21.9,33.4,N/A,,Mostly Cloudy,290,2013-11-09 21:12:00
3:33 PM,44.6,30.2,57,30.08,10.0,WNW,24.2,32.2,N/A,,Scattered Clouds,290,2013-11-09 21:33:00
3:52 PM,44.6,30.2,57,30.09,10.0,WNW,21.9,29.9,N/A,,Scattered Clouds,290,2013-11-09 21:52:00
4:12 PM,42.8,28.4,57,30.10,10.0,WNW,21.9,28.8,N/A,,Clear,290,2013-11-09 22:12:00
4:33 PM,42.8,28.4,57,30.12,10.0,WNW,19.6,27.6,N/A,,Clear,290,2013-11-09 22:33:00
4:52 PM,41.0,30.2,65,30.12,10.0,WNW,15.0,-,N/A,,Mostly Cloudy,290,2013-11-09 22:52:00
5:12 PM,39.2,28.4,65,30.13,10.0,WNW,16.1,-,N/A,,Mostly Cloudy,290,2013-11-09 23:12:00
5:33 PM,39.2,28.4,65,30.14,10.0,WNW,15.0,21.9,N/A,,Scattered Clouds,290,2013-11-09 23:33:00
5:52 PM,37.4,28.4,70,30.15,10.0,WNW,15.0,20.7,N/A,,Clear,290,2013-11-09 23:52:00
6:12 PM,37.4,28.4,70,30.16,10.0,WNW,15.0,-,N/A,,Clear,290,2013-11-10 00:12:00
6:33 PM,37.4,28.4,70,30.17,10.0,WNW,15.0,-,N/A,,Clear,290,2013-11-10 00:33:00
6:52 PM,35.6,28.4,75,30.18,10.0,West,11.5,-,N/A,,Clear,280,2013-11-10 00:52:00
7:12 PM,35.6,28.4,75,30.19,10.0,WNW,11.5,-,N/A,,Scattered Clouds,290,2013-11-10 01:12:00
7:33 PM,35.6,28.4,75,30.21,10.0,WNW,15.0,20.7,N/A,,Clear,300,2013-11-10 01:33:00
7:52 PM,35.6,28.4,75,30.22,10.0,NW,15.0,-,N/A,,Clear,320,2013-11-10 01:52:00
8:12 PM,33.8,26.6,75,30.22,10.0,NW,17.3,-,N/A,,Clear,310,2013-11-10 02:12:00
8:33 PM,33.8,26.6,75,30.23,10.0,NW,20.7,26.5,N/A,,Clear,310,2013-11-10 02:33:00
8:52 PM,33.8,26.6,75,30.23,10.0,WNW,16.1,-,N/A,,Clear,300,2013-11-10 02:52:00
9:13 PM,32.0,26.6,80,30.24,10.0,WNW,15.0,-,N/A,,Clear,290,2013-11-10 03:13:00
9:33 PM,32.0,26.6,80,30.25,10.0,WNW,15.0,21.9,N/A,,Clear,290,2013-11-10 03:33:00
9:52 PM,32.0,26.6,80,30.26,10.0,WNW,15.0,-,N/A,,Clear,290,2013-11-10 03:52:00
10:13 PM,32.0,26.6,80,30.27,10.0,WNW,15.0,-,N/A,,Clear,290,2013-11-10 04:13:00
10:33 PM,32.0,26.6,80,30.27,10.0,WNW,12.7,-,N/A,,Clear,290,2013-11-10 04:33:00
10:52 PM,30.2,26.6,86,30.28,10.0,West,13.8,-,N/A,,Clear,280,2013-11-10 04:52:00
11:13 PM,30.2,26.6,86,30.29,10.0,West,11.5,-,N/A,,Clear,280,2013-11-10 05:13:00
11:33 PM,30.2,26.6,86,30.29,10.0,WNW,11.5,-,N/A,,Clear,290,2013-11-10 05:33:00
11:52 PM,28.4,24.8,86,30.29,10.0,West,9.2,-,N/A,,Clear,280,2013-11-10 05:52:00